CZ-6A DEB

Satellite information

Favourite Embed

Satellite Type and Status

DEBRISIN ORBIT

Key statistics

Satellite CZ-6A DEB at a glance.

Uptime

970

Days in orbit

Revolutions

≈ 14.1

Per day

Orbit

SSO

Sun Synchronous Orbit

Inclination

98.8

Latest

Satellite identification and parameters

Extended collection of information and parameters for CZ-6A DEB.

Object identification

Identified? True

Debris? True

Object name: CZ-6A DEB

International designator: 2022-151BU

Object number (NORAD): 54325

Object ID (CCSDS): 54325

Country: PEOPLES REPUBLIC OF CHINA (PRC)

Current information (Y/N): Y

RCS size: SMALL

Orbital parameters

Period: 101.901 minutes

Inclination: 98.7955 deg

SMA: 7226.801 km

Apoapsis: 871.646 km

Periapsis: 825.687 km

RAAN: 190.0609 deg

Eccentricy: 0.0031798

Argument of periapsis: 229.9136 deg

Mean anomaly: 129.9248 deg

Mean motion: 14.13134771 rev/day

Mean motion (dot): 0.00000194 rev/day2

B* drag term: 0.00012654 1/REarth

Two-line elements (TLE)

Creation date: July 6, 2025, 6:05 p.m.

Reference frame: TEME

Reference center: EARTH

Epoch: July 6, 2025, 12:44 p.m. UTC

TLE line 0: 0 CZ-6A DEB

TLE line 1: 1 54325U 22151BU 25187.53083192 .00000194 00000-0 12654-3 0 9999

TLE line 2: 2 54325 98.7955 190.0609 0031798 229.9136 129.9248 14.13134771136028

Live tracking on map

Real-time ground track for satellite CZ-6A DEB.

In-orbit conjunctions

A list of the most updated potential collisions computed for object CZ-6A DEB.

Target Orbit TCA Probability of collision Miss distance Type
COSMOS 1275 DEB LEO 2025-04-23 05:46:33 0.0001910195 80.0 (m) DEBRIS
FENGYUN 1C DEB SSO 2024-11-09 07:31:09 0.0001864539 568.0 (m) DEBRIS

Associated space launch

Chinese satellite reported for atmospheric/ocean/environmental/spatial parameter research purposes, details TBD.

CZ-6A DEB was lifted into orbit during the mission ‘Long March 6A | Yunhai 3’, on board a Long March 6A space rocket.

The launch took place on Nov. 11, 2022, 10:52 p.m. from Launch Complex 9A.

For more information about the launch, click the button.

Launch to space Long March 6A | Yunhai 3
Long March 6A | Yunhai 3

Agency: N/A

Status: Launch Successful

Launch date: Nov. 11, 2022, 10:52 p.m. UTC

Rocket: Long March 6A

Launch pad: Launch Complex 9A

Location: Taiyuan Satellite Launch Center, People's Republic of China

...

Latest news about this satellite

There are no fresh news available about this satellite. Check back as we update our databases every day.


Newsletter sign-up

Weekly statistics, charts and insights to help you stay on top of the space industry.